User: anonymous   Login
Location: St. Louis
(38.6270°N, 90.1994°W)
Time: 15:27:52
(UTC-06:00)
Language:

AO-7 - Orbit

View from above orbital plane
View from above orbital plane
View from above satellite
View from above satellite

Ground track
Ground track

The orbit data is extracted from the following two-line orbital elements,

1 07530U 74089B   22022.55608668 -.00000040  00000-0  37294-4 0  9999
2 07530 101.8867   2.0707 0012153 322.7823 153.6216 12.53652379159184
Epoch (UTC): 22 January 2022 13:20:45
Eccentricity: 0.0012153
inclination: 101.8867°
perigee height: 1440 km
apogee height: 1459 km
right ascension of ascending node: 2.0707°
argument of perigee: 322.7823°
revolutions per day: 12.53652379
mean anomaly at epoch: 153.6216°
orbit number at epoch: 15918

The dashed part of the orbit path shows where the satellite is in the earth's shadow,  

DLR